Regional Weather Roundup
Issued by NWS

Home | Current Version | Previous Version | Text Only | Print | Product List | Glossary Off
Versions: 1 2 3 4 5 6 7 8 9 10 11 12 13 14 15 16 17 18 19 20 21 22 23 24 25 26 27 28 29 30 31 32 33 34 35 36 37 38 39 40 41 42 43 44 45 46 47 48 49 50

000
ASUS43 KOAX 171710
RWRNE

WEATHER ROUNDUP FOR NEBRASKA
NATIONAL WEATHER SERVICE OMAHA NE
1200 PM CDT THU APR 17 2014

NOTES: SATELLITE DATA IS BEING USED TO AUGMENT CLOUD COVER ABOVE
       12000 FEET.
       "FAIR" INDICATES FEW OR NO CLOUDS BELOW 12,000 FEET WITH NO
       SIGNIFICANT WEATHER AND/OR OBSTRUCTIONS TO VISIBILITY.

  * THESE STATIONS DO NOT REPORT WEATHER SUCH AS RAIN...SNOW OR FOG.

NEZ001>004-019>022-054>056-171800-
NEBRASKA PANHANDLE

CITY           SKY/WX    TMP DP  RH WIND       PRES   REMARKS
SCOTTSBLUFF    CLOUDY    41  34  76 SE10      30.14F
ALLIANCE       CLOUDY    37  30  75 S15       30.16S WCI  28
CHADRON        CLOUDY    40  33  76 S12       30.15F WCI  33
KIMBALL        CLOUDY    38  35  87 S13       30.12S WCI  30
SIDNEY         CLOUDY    36  32  85 SE17      30.17F FOG     WCI  26
$$

NEZ057>060-069>072-079>082-171800-
SOUTHWEST NEBRASKA

CITY           SKY/WX    TMP DP  RH WIND       PRES   REMARKS
NORTH PLATTE   SUNNY     38  25  59 VRB6      30.28F WCI  33
IMPERIAL       CLOUDY    34  28  79 SE12      30.26S WCI  25
LEXINGTON      MOSUNNY   37  28  70 SE3       30.31S
MCCOOK         SUNNY     37  26  64 CALM      30.31F
OGALLALA       CLOUDY    34  27  75 SE9       30.25S HAZE    WCI  27
$$

NEZ005>010-023>029-035>040-094-171800-
NORTH CENTRAL NEBRASKA

CITY           SKY/WX    TMP DP  RH WIND       PRES   REMARKS
VALENTINE      PTSUNNY   39  22  50 SE14      30.25F WCI  31
AINSWORTH      MOSUNNY   40  24  53 SE8       30.28F WCI  34
BROKEN BOW     SUNNY     40  24  53 E7        30.28F
O`NEILL        SUNNY     40  21  45 NE6       30.32S
ORD            SUNNY     41  23  48 VRB5      30.30F
THEDFORD       CLOUDY    41  23  48 SE12      30.26F
$$

NEZ041-046>049-061>064-073>077-083>087-171800-
SOUTH CENTRAL NEBRASKA

CITY           SKY/WX    TMP DP  RH WIND       PRES   REMARKS
GRAND ISLAND   SUNNY     42  25  50 NE7       30.33S
AURORA         SUNNY     42  27  53 N3        30.32S
HASTINGS       SUNNY     42  27  55 E7        30.31F
HEBRON         PTSUNNY   41  27  57 N8        30.33F
HOLDREGE       PTSUNNY   37  28  68 E5        30.31S WCI  34
KEARNEY *      SUNNY     39  28  65 CALM      30.32S
YORK           SUNNY     41  27  56 NE5       30.33S
$$

NEZ011>018-030>034-042>045-171800-
NORTHEAST NEBRASKA

CITY           SKY/WX    TMP DP  RH WIND       PRES   REMARKS
NORFOLK        SUNNY     42  23  46 VRB6      30.31S
ALBION         SUNNY     40  23  50 N5        30.32S
BLAIR          SUNNY     39  26  57 N5        30.32F
COLUMBUS *     SUNNY     39  25  56 E5        30.34S
FREMONT        SUNNY     42  26  53 N5        30.33F
TEKAMAH        SUNNY     42  25  50 N10       30.34S
$$

NEZ050>053-065>068-078-088>093-171800-
SOUTHEAST NEBRASKA

CITY           SKY/WX    TMP DP  RH WIND       PRES   REMARKS
LINCOLN        MOSUNNY   44  26  49 VRB6      30.35S
OMAHA EPPLEY   MOSUNNY   41  25  53 VRB6      30.34F
BEATRICE       FAIR      43  26  52 NE7       30.32F
FALLS CITY     MOSUNNY   43  28  55 VRB7      30.32S
NEBRASKA CITY  MOSUNNY   40  28  61 NE8       30.32F WCI  35
PLATTSMOUTH    MOSUNNY   40  25  55 NW6       30.33F
$$

NEZ044-045-051>053-067-171800-
OMAHA AREA

CITY           SKY/WX    TMP DP  RH WIND       PRES   REMARKS
OMAHA EPPLEY   MOSUNNY   41  25  53 VRB6      30.34F
BLAIR          SUNNY     39  26  57 N5        30.32F
FREMONT        SUNNY     42  26  53 N5        30.33F
MILLARD        SUNNY     40  26  56 E3        30.33F
OFFUTT AFB     SUNNY     42  28  58 VRB5      30.34S
PLATTSMOUTH    MOSUNNY   40  25  55 NW6       30.33F
WAHOO          FAIR      41  23  48 NW8       30.33F
$$



USA.gov is the U.S. government's official web portal to all federal, state and local government web resources and services.